RH
84 78 51 36 33 42 49 32 27 19 19 16 15 15 15 15 16 23 58 70 82 88 97 94 97 96 94 93 93 92 90 89 89 89 89 90 90 90 91 91 89 86 81 81 80 80 81 83 87
62 49 39 40 46 48 35 34 24 20 17 15 15 17 19 17 45 67 83 87 84 91 96 95 93 94 94 92 93 92 90 90 90 90 90 91 91 90 91 91 89 87 85 80 78 78 81 86 88
57 48 47 46 56 42 34 27 22 19 16 16 17 16 17 21 53 69 72 86 90 97 95 89 93 92 95 94 93 93 92 92 92 92 91 91 91 90 91 91 89 88 85 80 76 80 85 89 90
53 52 54 55 50 44 30 23 23 21 18 16 18 18 17 34 55 53 84 86 95 96 96 96 96 94 95 94 94 93 94 94 93 92 91 90 90 91 92 91 90 88 85 81 81 85 90 90 88
55 58 71 71 54 40 30 24 27 23 21 18 18 18 22 46 53 83 86 84 95 98 97 97 95 93 95 94 95 94 95 95 93 92 91 90 90 91 91 91 90 88 86 85 88 90 90 90 90
55 56 74 74 47 33 29 23 25 21 19 18 19 20 24 53 79 85 84 88 91 97 98 96 93 94 94 95 96 96 96 95 94 93 92 90 89 89 90 89 89 87 88 91 93 91 91 91 85
66 69 73 61 46 34 24 23 24 22 22 23 19 21 38 64 75 78 83 92 97 97 97 96 87 90 94 93 95 96 96 95 95 94 93 92 91 88 88 86 87 88 92 94 92 91 91 90 82
62 70 80 60 42 37 21 25 23 23 24 19 21 24 56 51 72 85 96 98 96 96 96 96 83 87 87 87 97 95 97 96 96 95 95 95 92 90 89 88 88 92 93 94 92 91 91 87 84
50 76 60 49 46 35 28 30 26 23 23 24 23 21 20 37 86 98 94 98 93 92 89 90 92 88 90 85 95 96 97 97 97 96 96 96 88 87 86 81 91 94 94 94 92 91 91 86 87
63 88 58 40 36 36 30 30 29 32 31 32 26 25 46 78 93 97 93 91 90 93 95 88 84 89 89 85 89 93 92 92 93 91 94 90 89 85 80 81 92 96 95 94 91 91 91 86 92
64 64 42 38 39 35 35 39 37 35 37 31 31 29 34 64 86 94 96 95 92 89 90 91 87 83 83 87 90 87 88 86 90 89 92 91 88 89 92 92 84 98 95 98 96 96 94 85 86
64 51 49 45 39 39 44 39 42 40 35 29 28 26 28 41 69 81 88 93 97 97 89 88 88 83 82 83 89 86 88 86 90 90 91 89 88 92 96 94 91 94 96 98 98 98 95 83 81
56 51 42 41 40 38 39 45 44 40 32 29 26 25 27 28 36 59 71 79 88 96 96 88 88 88 83 90 88 86 86 85 85 89 86 88 86 90 95 89 91 95 95 98 99 97 90 81 80
47 44 42 38 38 35 37 38 39 37 33 31 29 31 32 30 30 36 42 65 89 86 94 94 87 86 84 90 86 85 83 85 85 88 84 89 87 88 93 89 96 96 97 99 97 94 94 84 78
52 60 54 50 45 41 40 47 46 35 34 32 31 34 35 37 34 35 35 35 55 81 83 95 89 86 84 89 88 85 83 86 88 84 85 86 85 87 89 94 95 97 98 98 98 95 95 89 76
77 71 87 61 54 47 44 55 33 32 34 35 33 32 31 29 33 32 32 33 35 49 83 86 86 87 86 84 83 83 83 82 81 86 87 87 84 85 86 93 94 97 98 97 91 90 96 94 80
89 88 81 75 55 57 52 58 40 34 37 35 32 30 29 29 38 35 33 32 33 38 58 82 87 87 85 85 79 78 80 82 78 83 85 87 86 87 88 90 95 97 97 96 89 88 78 93 94
80 85 78 72 57 56 59 58 45 41 39 35 33 34 36 34 33 30 30 32 31 31 36 76 82 88 86 84 80 88 90 85 87 85 85 87 87 88 90 89 95 97 97 95 85 82 91 91 85
73 75 70 61 53 60 60 61 52 43 42 40 36 36 39 39 38 33 32 31 29 29 30 66 81 89 87 88 86 93 93 87 91 82 83 84 85 88 87 90 95 95 93 95 92 90 88 96 92
71 79 80 67 57 60 64 61 51 46 45 42 40 37 37 36 35 34 33 33 32 32 36 67 76 87 84 77 82 87 89 86 84 84 87 82 86 87 84 87 93 94 94 91 90 81 83 95 84
85 81 78 74 67 59 60 68 59 50 46 41 40 39 37 37 38 36 34 34 33 37 35 72 74 83 84 78 77 82 89 91 94 89 90 88 84 88 84 84 89 91 91 93 93 88 74 81 88
90 76 75 70 76 91 59 88 57 53 53 48 43 42 40 39 36 36 34 32 40 40 36 68 72 79 86 84 83 86 89 89 87 90 87 88 86 89 84 84 86 88 89 90 89 89 82 72 80
48 63 82 95 99 100 91 99 78 54 53 49 45 44 43 41 39 37 33 34 84 66 46 69 75 81 85 86 83 87 87 84 82 91 88 92 92 89 86 86 84 86 84 87 87 89 80 78 75
57 52 72 84 82 98 88 99 82 67 61 49 44 64 68 75 64 50 51 70 78 82 85 88 86 84 86 86 86 87 88 90 92 95 91 94 95 94 89 85 82 79 84 85 89 87 82 79 80
86 78 92 96 96 96 66 92 77 75 64 60 70 71 69 68 70 71 73 72 73 77 83 92 87 91 89 88 88 89 93 91 92 93 94 96 96 95 94 89 87 81 79 85 88 86 82 75 73
96 78 81 91 94 92 79 98 94 76 62 61 62 63 60 60 60 62 62 62 64 63 66 72 80 87 93 96 95 95 92 91 91 92 90 93 97 96 92 92 87 83 80 84 84 88 87 78 75
98 98 70 82 72 98 92 94 82 80 83 75 70 69 70 63 56 55 56 61 65 66 67 63 67 72 86 92 97 99 98 96 89 88 89 96 95 94 96 94 94 88 86 86 87 89 88 86 79
100 98 99 99 96 95 94 77 98 98 99 89 91 93 88 79 70 60 54 52 53 58 62 64 64 67 69 80 94 95 96 98 98 98 98 95 94 91 95 98 97 95 91 89 89 90 84 85 84
96 97 98 99 98 96 98 98 100 100 100 100 97 96 94 89 81 66 56 50 47 47 52 59 61 65 66 68 76 87 93 92 94 96 97 98 96 97 98 95 94 94 97 90 90 87 86 85 85
95 100 99 98 98 98 97 99 100 100 99 96 98 95 94 92 85 80 69 59 56 55 53 58 60 60 65 66 68 73 75 90 94 94 93 92 94 95 96 96 98 97 89 95 92 90 88 90 90
Wind_Speed
2 2 1 5 5 6 5 8 3 7 5 3 2 5 7 4 5 6 1 9 5 7 9 12 14 13 15 16 14 15 19 23 23 24 24 24 25 25 24 23 21 21 21 20 19 19 20 21 19
1 1 5 3 6 2 7 5 9 9 5 11 6 1 2 7 5 4 5 7 8 9 8 10 15 15 15 16 15 16 19 21 21 23 23 24 24 24 23 22 21 20 20 20 20 20 21 20 17
3 4 3 4 5 9 8 7 10 4 4 5 5 4 4 4 2 7 3 13 8 8 7 10 15 17 17 17 15 16 18 20 20 21 23 23 24 23 22 21 20 20 20 20 21 20 20 17 17
2 5 4 3 10 9 9 7 2 10 8 6 4 6 5 5 9 8 13 13 10 10 9 10 15 17 18 19 16 17 18 20 20 21 22 23 23 23 22 20 20 19 19 20 20 19 16 16 17
3 3 2 4 10 8 6 15 2 6 4 9 2 11 4 4 3 12 13 12 11 8 7 12 16 16 17 17 17 17 17 20 20 21 21 22 22 22 21 19 19 19 19 19 19 17 14 14 14
1 3 1 8 13 9 7 14 3 8 7 9 5 5 6 5 11 12 13 12 9 11 9 11 16 15 17 15 15 15 17 19 19 20 20 21 21 20 19 18 18 17 17 17 17 17 14 12 12
4 2 6 5 4 12 14 7 9 11 7 7 5 5 4 2 7 12 11 9 9 9 11 11 13 13 14 13 14 15 16 17 18 19 19 20 19 18 17 16 15 15 17 16 16 16 16 14 11
5 3 5 6 10 27 18 5 5 5 7 7 1 3 4 9 8 6 6 5 8 10 11 13 15 12 11 11 14 15 15 17 17 18 18 18 18 17 15 15 14 15 15 16 16 15 16 16 12
5 3 18 14 15 21 3 3 4 5 7 4 3 4 6 7 7 7 7 4 8 9 12 13 14 14 12 12 12 15 15 17 17 16 18 16 11 13 14 13 15 15 14 14 15 15 16 14 17
7 6 20 15 15 13 9 7 8 6 7 6 13 3 4 8 8 10 12 11 11 12 11 12 16 16 17 11 13 12 12 10 11 12 13 10 12 11 12 13 14 15 13 12 12 13 16 12 5
7 27 25 20 11 15 20 16 8 14 19 16 12 9 9 6 13 13 13 13 19 13 9 11 13 15 18 13 10 8 8 8 8 14 12 10 9 8 6 6 8 7 9 5 6 7 5 8 7
15 23 23 26 19 18 18 15 15 16 21 19 17 14 7 12 15 17 14 14 12 15 16 15 13 16 18 12 10 11 10 10 9 11 13 10 8 10 9 7 8 8 6 5 4 3 5 6 7
21 24 24 23 23 25 21 26 30 36 21 21 27 17 16 13 15 17 18 17 14 14 15 18 17 15 16 14 12 11 11 11 12 12 14 11 11 12 10 11 10 8 7 6 5 5 5 6 7
6 19 25 23 24 23 24 29 21 30 18 26 26 19 12 15 14 9 12 13 12 15 16 17 20 20 18 14 17 14 12 13 12 12 14 15 11 11 10 10 9 8 8 5 6 6 5 5 6
20 23 25 29 19 22 11 32 40 19 10 23 24 15 12 13 13 12 12 16 17 15 18 19 21 21 22 19 16 13 14 14 13 13 16 17 14 13 12 9 9 9 9 7 5 4 5 5 4
17 16 19 16 18 17 19 34 52 13 21 29 28 23 20 22 18 16 14 12 16 17 19 20 19 23 23 19 15 12 13 13 13 13 13 18 16 15 13 10 11 9 9 8 7 6 5 5 6
18 26 29 34 30 9 21 32 45 14 15 22 27 25 24 23 10 12 12 11 11 19 18 21 22 23 24 21 16 16 16 14 13 12 12 17 17 16 13 12 10 12 9 10 9 5 8 6 5
25 20 20 30 37 20 34 32 36 16 13 23 22 17 13 14 15 15 14 12 11 11 15 21 20 23 23 17 15 11 11 11 11 12 13 18 15 18 14 11 12 12 10 9 9 10 4 5 8
32 30 31 31 20 19 37 25 38 26 22 26 22 19 17 16 10 14 14 15 18 17 14 21 21 22 17 15 14 12 12 12 11 13 18 18 16 18 17 11 12 13 13 13 11 8 9 3 6
34 40 40 28 27 21 24 28 36 28 29 27 26 27 21 21 18 21 20 18 19 17 13 19 23 22 20 16 15 12 13 13 14 12 15 18 18 19 17 15 14 15 11 13 14 14 7 3 9
29 36 33 34 22 28 27 33 39 33 27 26 25 25 24 23 20 22 20 16 16 14 13 19 22 22 23 22 15 12 11 10 9 12 12 16 20 17 18 17 15 15 13 12 15 13 16 11 8
35 29 27 36 33 31 25 23 35 24 24 24 24 23 24 23 22 22 22 16 10 14 14 19 22 22 22 22 18 20 15 14 11 13 12 14 18 18 20 18 16 16 11 14 15 12 11 11 14
40 22 21 19 22 15 13 17 26 6 23 23 19 20 26 28 23 23 19 10 3 2 10 13 18 20 22 22 22 18 18 14 12 13 18 15 16 18 20 18 18 17 13 14 16 15 15 13 12
28 27 22 22 14 17 17 4 16 13 12 13 12 6 6 7 5 7 3 8 7 6 3 9 15 15 15 19 20 22 21 18 13 14 12 12 12 12 18 18 17 17 15 17 16 17 19 16 12
16 14 11 14 11 14 12 12 17 7 17 11 14 13 13 14 13 13 12 11 11 11 10 7 11 10 12 16 17 18 16 17 18 15 12 12 10 11 16 18 18 16 18 16 16 16 20 19 17
15 20 12 13 5 3 7 8 2 8 15 19 16 16 16 17 14 15 14 13 14 13 14 16 13 12 9 7 10 11 14 11 11 13 9 13 10 9 14 16 17 19 19 18 18 14 14 16 16
6 10 17 18 24 8 3 3 6 18 14 15 17 17 18 16 14 16 15 15 14 15 15 14 14 13 12 9 6 5 5 7 12 17 14 10 8 10 11 15 16 17 16 17 18 14 17 15 17
8 7 7 8 6 9 5 3 5 8 12 11 18 17 14 13 14 14 14 15 14 13 13 14 15 14 12 11 10 10 10 5 5 3 6 6 9 12 14 11 12 15 16 16 17 16 16 18 14
5 6 7 2 4 4 3 2 6 8 8 10 13 14 13 15 12 12 13 12 14 14 14 13 15 14 14 13 11 11 11 12 10 9 8 7 9 7 1 11 12 15 14 17 17 18 18 19 19
4 8 4 6 3 3 2 3 3 4 7 7 12 15 20 17 16 12 13 13 15 14 14 13 14 14 12 11 11 11 10 9 10 9 8 8 8 6 6 6 4 7 15 15 19 19 17 19 19
Wind_Direction
97 137 126 45 50 67 267 258 258 280 307 256 193 161 195 186 163 212 11 194 138 142 154 167 157 149 147 150 151 143 132 130 133 132 132 134 134 133 133 131 132 131 131 128 126 123 121 120 116
64 351 30 81 103 139 256 232 232 224 256 324 297 251 214 227 158 168 123 188 164 156 156 163 167 157 154 154 151 146 138 132 132 132 134 135 135 135 135 133 132 131 130 131 129 128 126 121 115
310 19 80 140 157 207 219 215 235 247 283 266 283 212 228 206 234 173 181 147 144 154 169 168 173 165 156 150 150 149 142 137 137 137 137 138 137 136 134 133 132 132 134 134 131 132 128 125 120
55 6 16 139 223 252 211 239 191 332 311 269 248 274 279 236 162 178 142 142 146 165 175 166 164 162 153 149 151 150 148 140 141 142 141 141 139 137 134 134 134 135 137 134 132 131 132 132 127
44 81 225 255 253 261 255 259 107 272 267 277 283 256 219 322 99 129 143 150 156 169 173 162 158 159 151 150 149 147 148 142 145 146 144 141 140 138 136 136 136 137 137 134 130 129 133 126 113
352 97 152 242 245 260 263 257 200 244 267 278 288 246 225 143 149 159 155 162 164 162 166 158 151 153 150 153 146 145 149 144 146 147 145 142 140 139 138 139 138 139 136 134 130 130 129 117 116
154 105 228 232 256 268 250 242 224 251 266 262 252 241 315 210 192 158 159 153 157 163 161 154 153 157 148 157 149 151 152 146 148 148 145 141 139 140 139 141 140 135 138 137 136 135 130 123 118
137 136 256 219 240 268 264 234 236 221 261 246 161 258 249 235 154 125 104 133 155 169 166 157 157 158 160 162 152 163 158 148 151 151 145 141 140 144 144 145 142 139 144 143 143 140 133 129 121
127 227 252 231 224 237 315 260 252 238 246 256 252 221 247 155 119 123 145 132 170 178 174 167 160 158 161 172 161 161 162 153 150 152 148 142 149 151 154 155 141 142 149 149 149 146 134 122 126
171 222 249 222 233 249 262 256 277 281 283 295 287 255 104 92 128 161 173 183 189 187 177 175 176 169 162 171 170 168 169 167 160 160 156 153 155 160 162 160 142 145 153 153 152 149 131 116 115
211 236 241 251 245 247 261 267 243 268 268 260 264 264 166 169 175 181 193 189 195 184 181 185 179 180 171 168 172 172 171 172 169 168 165 159 157 155 149 159 148 148 151 155 145 143 128 128 128
255 250 254 258 255 260 257 269 261 242 253 270 260 253 229 192 196 196 198 199 185 182 188 187 185 181 181 171 172 175 175 174 173 176 169 163 164 162 158 163 159 161 159 155 143 138 126 131 128
232 249 254 262 261 262 270 261 263 254 255 260 263 254 240 222 203 210 200 202 193 189 186 189 184 185 186 180 174 175 183 182 177 173 176 174 172 172 168 176 168 164 156 161 148 148 139 141 134
213 249 258 265 268 267 264 268 257 252 240 254 258 253 225 231 236 186 199 211 191 202 190 186 192 191 186 186 182 179 181 181 181 178 182 180 177 174 175 174 168 160 163 161 161 161 145 143 143
241 254 265 254 256 254 275 275 245 263 226 248 253 245 230 218 233 229 196 199 197 205 202 190 191 192 190 191 189 187 182 179 180 185 185 180 180 177 171 167 173 166 164 156 135 130 124 131 144
261 245 253 264 229 242 194 256 268 211 228 244 245 246 248 252 226 225 226 195 197 198 197 197 194 191 192 191 188 188 189 182 185 184 183 185 182 174 174 171 180 166 165 168 172 164 143 142 149
230 251 244 262 233 233 199 244 264 232 225 241 244 245 241 242 230 232 233 225 190 199 194 199 194 192 193 195 187 190 191 187 185 185 182 186 182 174 176 180 173 168 170 174 170 171 169 158 142
245 245 246 248 257 224 242 242 257 239 214 241 249 242 234 236 238 243 245 240 228 214 196 197 194 192 192 188 187 192 188 189 184 186 186 185 182 174 178 176 171 171 169 172 175 174 153 161 152
250 256 256 248 251 229 250 239 251 243 238 247 254 238 241 245 236 249 248 247 250 239 214 197 194 191 186 185 183 186 188 184 182 191 189 185 180 178 181 177 167 174 176 177 178 167 169 132 135
253 254 254 260 260 232 249 250 253 247 241 241 245 253 248 252 248 255 254 248 244 235 197 188 192 186 188 186 187 187 183 187 186 188 188 186 187 182 181 179 177 177 176 174 175 174 172 151 173
271 250 260 257 255 252 246 256 255 249 248 246 246 249 250 247 247 253 252 237 231 222 208 187 191 186 187 187 184 185 187 185 188 186 187 192 188 180 184 183 178 178 177 179 184 183 182 179 189
260 268 279 262 256 246 225 261 253 256 248 244 247 238 248 246 245 248 252 248 210 223 205 189 187 185 187 184 183 183 181 185 189 184 187 187 187 180 185 184 179 182 181 183 183 181 184 179 190
255 248 274 274 271 269 263 249 260 312 241 239 235 237 239 241 239 239 244 231 95 256 186 181 192 185 185 183 185 184 186 191 185 189 187 184 185 183 187 184 182 183 184 182 182 178 185 195 190
253 256 253 282 269 263 246 201 288 270 242 247 224 3 358 7 346 246 244 79 48 19 133 156 177 192 190 187 188 187 187 182 182 185 184 182 188 181 189 187 188 188 188 182 185 185 187 192 201
232 222 245 246 225 253 208 204 234 38 32 69 81 56 52 36 51 59 59 62 56 45 55 69 149 159 170 185 188 193 194 183 184 181 179 174 184 189 195 187 188 190 192 187 190 189 191 192 196
272 209 210 236 224 283 191 202 91 316 90 86 66 67 59 55 47 59 57 58 59 60 63 74 73 78 77 140 180 194 194 177 176 176 196 179 176 191 202 196 192 197 192 189 187 192 199 195 200
333 218 222 241 275 278 233 214 77 62 63 70 76 66 59 56 53 52 52 49 46 49 55 60 65 63 60 60 84 106 172 195 184 178 169 158 186 188 205 200 197 199 197 198 191 196 193 201 202
251 309 191 182 225 239 263 39 40 59 94 59 76 61 54 48 45 53 48 52 50 46 45 51 57 55 56 55 55 66 62 81 113 116 140 157 193 204 195 195 208 194 196 201 200 204 202 197 201
337 5 319 189 125 196 130 38 353 47 38 64 67 70 61 50 34 42 54 50 55 52 49 47 50 48 47 44 48 54 56 60 74 82 76 85 75 68 92 209 208 208 196 200 203 207 208 202 200
293 332 309 346 6 84 118 92 346 33 47 70 74 61 57 50 33 13 52 48 50 45 44 45 45 48 44 41 46 50 50 54 72 72 76 78 74 62 59 31 99 277 236 219 202 206 206 205 208